,,,PA_Meas_PMT16A,,PR_Meas_QMR101_102,,RH_Meas_QMH101,,SR_Meas_QMS101,,TA_Meas_QMH101,,GenWind,,GenWind,
date,time,status,PA,status,PR,status,RH,status,SR,status,TA,status,DirAvg,status,SpdAvg,
2010-06-13, 00:00:04,VALID,1010.41,VALID,0,VALID,100.431,VALID,0.105969,VALID,25.9531,VALID,157,VALID,1.09922,
2010-06-13, 00:01:04,VALID,1010.39,VALID,0,VALID,100.248,VALID,0,VALID,25.9746,VALID,166,VALID,0.744922,
2010-06-13, 00:02:04,VALID,1010.4,VALID,0,VALID,100.187,VALID,0.105969,VALID,25.9726,VALID,166,VALID,0.539844,
2010-06-13, 00:03:04,VALID,1010.37,VALID,0,VALID,100.202,VALID,0,VALID,25.9746,VALID,166,VALID,0.572656,
2010-06-13, 00:04:04,VALID,1010.36,VALID,0,VALID,100.202,VALID,0,VALID,25.9531,VALID,166,VALID,0.423438,
2010-06-13, 00:05:04,VALID,1010.33,VALID,0,VALID,100.18,VALID,0,VALID,25.9551,VALID,166,VALID,0.472266,
2010-06-13, 00:06:04,VALID,1010.33,VALID,0,VALID,100.103,VALID,0,VALID,25.9531,VALID,166,VALID,0.358203,
2010-06-13, 00:07:04,VALID,1010.35,VALID,0,VALID,100.065,VALID,0,VALID,25.9551,VALID,136,VALID,0.469531,
2010-06-13, 00:08:04,VALID,1010.35,VALID,0,VALID,100.004,VALID,0,VALID,25.9531,VALID,136,VALID,0.318359,
2010-06-13, 00:09:04,VALID,1010.35,VALID,0,VALID,100.05,VALID,0,VALID,25.9746,VALID,136,VALID,0.0886719,
2010-06-13, 00:10:04,VALID,1010.33,VALID,0,VALID,100.103,VALID,0,VALID,25.9746,VALID,136,VALID,0.427734,
2010-06-13, 00:11:04,VALID,1010.34,VALID,0,VALID,100.088,VALID,0,VALID,25.9746,VALID,136,VALID,0.046875,
2010-06-13, 00:12:04,VALID,1010.36,VALID,0,VALID,100.103,VALID,0,VALID,25.9746,VALID,135,VALID,0,
2010-06-13, 00:13:04,VALID,1010.34,VALID,0,VALID,100.088,VALID,0,VALID,25.9746,VALID,133,VALID,0.565234,
2010-06-13, 00:14:04,VALID,1010.37,VALID,0,VALID,100.241,VALID,0,VALID,25.9941,VALID,127,VALID,0.322266,
2010-06-13, 00:15:04,VALID,1010.37,VALID,0,VALID,100.568,VALID,0,VALID,25.9921,VALID,77,VALID,0.490234,
2010-06-13, 00:16:04,VALID,1010.36,VALID,0,VALID,100.5,VALID,0,VALID,25.9746,VALID,35,VALID,0.973828,
2010-06-13, 00:17:04,VALID,1010.38,VALID,0,VALID,100.332,VALID,0,VALID,25.9336,VALID,37,VALID,0.554688,
2010-06-13, 00:18:04,VALID,1010.37,VALID,0,VALID,100.263,VALID,0,VALID,25.9356,VALID,38,VALID,0.775,
2010-06-13, 00:19:04,VALID,1010.38,VALID,0,VALID,100.317,VALID,0,VALID,25.9141,VALID,6,VALID,0.575,
2010-06-13, 00:20:04,VALID,1010.39,VALID,0,VALID,100.408,VALID,0,VALID,25.9161,VALID,26,VALID,0.355078,
2010-06-13, 00:21:04,VALID,1010.4,VALID,0,VALID,100.485,VALID,0,VALID,25.8966,VALID,26,VALID,0.000390625,
2010-06-13, 00:22:04,VALID,1010.39,VALID,0,VALID,100.568,VALID,0,VALID,25.8966,VALID,26,VALID,0,
2010-06-13, 00:23:04,VALID,1010.38,VALID,0,VALID,100.683,VALID,0,VALID,25.8771,VALID,26,VALID,0.242578,
2010-06-13, 00:24:04,VALID,1010.38,VALID,0,VALID,100.782,VALID,0,VALID,25.8576,VALID,26,VALID,0,
2010-06-13, 00:25:04,VALID,1010.37,VALID,0,VALID,100.866,VALID,0,VALID,25.8361,VALID,26,VALID,0,
2010-06-13, 00:26:04,VALID,1010.36,VALID,0,VALID,101.011,VALID,0,VALID,25.8576,VALID,26,VALID,0,
2010-06-13, 00:27:04,VALID,1010.34,VALID,0,VALID,101.072,VALID,0,VALID,25.8576,VALID,26,VALID,0,
2010-06-13, 00:28:04,VALID,1010.31,VALID,0,VALID,101.178,VALID,0,VALID,25.8576,VALID,26,VALID,0,
2010-06-13, 00:29:04,VALID,1010.31,VALID,0,VALID,101.293,VALID,0.105969,VALID,25.8576,VALID,26,VALID,0,
2010-06-13, 00:30:04,VALID,1010.3,VALID,0,VALID,101.323,VALID,0,VALID,25.8771,VALID,26,VALID,0,
2010-06-13, 00:31:04,VALID,1010.31,VALID,0,VALID,101.331,VALID,0,VALID,25.8576,VALID,26,VALID,0,
2010-06-13, 00:32:04,VALID,1010.27,VALID,0,VALID,101.362,VALID,0,VALID,25.8576,VALID,26,VALID,0,
2010-06-13, 00:33:04,VALID,1010.29,VALID,0,VALID,101.453,VALID,0,VALID,25.8576,VALID,26,VALID,0,
2010-06-13, 00:34:04,VALID,1010.27,VALID,0,VALID,101.545,VALID,0,VALID,25.8361,VALID,26,VALID,0,
2010-06-13, 00:35:04,VALID,1010.26,VALID,0,VALID,101.56,VALID,0,VALID,25.8576,VALID,26,VALID,0,
2010-06-13, 00:36:04,VALID,1010.25,VALID,0,VALID,101.651,VALID,0,VALID,25.8381,VALID,4,VALID,0,
2010-06-13, 00:37:04,VALID,1010.26,VALID,0,VALID,101.697,VALID,0,VALID,25.8361,VALID,360,VALID,0,
2010-06-13, 00:38:04,VALID,1010.26,VALID,0,VALID,101.659,VALID,0,VALID,25.8576,VALID,329,VALID,0.222656,
2010-06-13, 00:39:04,VALID,1010.28,VALID,0,VALID,101.461,VALID,0,VALID,25.8381,VALID,297,VALID,0.436719,
2010-06-13, 00:40:04,VALID,1010.28,VALID,0,VALID,101.354,VALID,0,VALID,25.8361,VALID,310,VALID,0.396484,
2010-06-13, 00:41:04,VALID,1010.3,VALID,0,VALID,101.407,VALID,0,VALID,25.8771,VALID,310,VALID,0.480859,
2010-06-13, 00:42:04,VALID,1010.29,VALID,0,VALID,101.423,VALID,0,VALID,25.8771,VALID,310,VALID,0.422656,
2010-06-13, 00:43:04,VALID,1010.32,VALID,0,VALID,101.301,VALID,0,VALID,25.8381,VALID,310,VALID,0.391016,
2010-06-13, 00:44:04,VALID,1010.34,VALID,0,VALID,101.14,VALID,0,VALID,25.8186,VALID,310,VALID,0.348437,
2010-06-13, 00:45:04,VALID,1010.33,VALID,0,VALID,101.095,VALID,0,VALID,25.7991,VALID,350,VALID,0.627734,
2010-06-13, 00:46:04,VALID,1010.33,VALID,0,VALID,101.171,VALID,0,VALID,25.7796,VALID,30,VALID,0.526563,
2010-06-13, 00:47:04,VALID,1010.37,VALID,0,VALID,101.27,VALID,0,VALID,25.7601,VALID,30,VALID,0.419141,
2010-06-13, 00:48:04,VALID,1010.4,VALID,0,VALID,101.438,VALID,0,VALID,25.7601,VALID,30,VALID,0.191016,
2010-06-13, 00:49:04,VALID,1010.42,VALID,0,VALID,101.537,VALID,0,VALID,25.7406,VALID,30,VALID,0.200391,
2010-06-13, 00:50:04,VALID,1010.46,VALID,0,VALID,101.583,VALID,0,VALID,25.7406,VALID,27,VALID,0.355078,
2010-06-13, 00:51:04,VALID,1010.5,VALID,0,VALID,101.705,VALID,0,VALID,25.7192,VALID,348,VALID,0.332812,
2010-06-13, 00:52:04,VALID,1010.5,VALID,0,VALID,101.651,VALID,0,VALID,25.7211,VALID,348,VALID,0.554688,
2010-06-13, 00:53:04,VALID,1010.5,VALID,0,VALID,101.613,VALID,0,VALID,25.7211,VALID,348,VALID,0.262891,
2010-06-13, 00:54:04,VALID,1010.48,VALID,0,VALID,101.59,VALID,0,VALID,25.7211,VALID,348,VALID,0.194922,
2010-06-13, 00:55:04,VALID,1010.45,VALID,0,VALID,101.522,VALID,0,VALID,25.7211,VALID,348,VALID,0,
2010-06-13, 00:56:04,VALID,1010.48,VALID,0,VALID,101.575,VALID,0,VALID,25.7211,VALID,348,VALID,0.270703,
2010-06-13, 00:57:04,VALID,1010.44,VALID,0,VALID,101.438,VALID,0,VALID,25.7211,VALID,348,VALID,0.304297,
2010-06-13, 00:58:04,VALID,1010.45,VALID,0,VALID,101.514,VALID,0,VALID,25.7211,VALID,84,VALID,0.540234,
2010-06-13, 00:59:04,VALID,1010.42,VALID,0,VALID,101.613,VALID,0.105969,VALID,25.7601,VALID,84,VALID,0.358594,
2010-06-13, 01:00:04,VALID,1010.41,VALID,0,VALID,101.758,VALID,0,VALID,25.7601,VALID,84,VALID,0.117188,
2010-06-13, 01:01:04,VALID,1010.39,VALID,0,VALID,101.865,VALID,0,VALID,25.7796,VALID,84,VALID,0,
2010-06-13, 01:02:04,VALID,1010.39,VALID,0,VALID,101.872,VALID,0,VALID,25.7796,VALID,84,VALID,0,
2010-06-13, 01:03:04,VALID,1010.37,VALID,0,VALID,101.811,VALID,0,VALID,25.7991,VALID,83,VALID,0.310937,
2010-06-13, 01:04:04,VALID,1010.36,VALID,0,VALID,101.773,VALID,0,VALID,25.7796,VALID,65,VALID,0.439844,
2010-06-13, 01:05:04,VALID,1010.33,VALID,0,VALID,101.705,VALID,0,VALID,25.7601,VALID,64,VALID,0.417969,
2010-06-13, 01:06:04,VALID,1010.34,VALID,0,VALID,101.598,VALID,0,VALID,25.7192,VALID,64,VALID,0.479688,
2010-06-13, 01:07:04,VALID,1010.32,VALID,0,VALID,101.537,VALID,0,VALID,25.6997,VALID,64,VALID,0.357422,
2010-06-13, 01:08:04,VALID,1010.3,VALID,0,VALID,101.583,VALID,0,VALID,25.7192,VALID,64,VALID,0.269141,
2010-06-13, 01:09:04,VALID,1010.28,VALID,0,VALID,101.606,VALID,0,VALID,25.6802,VALID,64,VALID,0.162109,
2010-06-13, 01:10:04,VALID,1010.27,VALID,0,VALID,101.606,VALID,0,VALID,25.7016,VALID,64,VALID,0.151953,
2010-06-13, 01:11:04,VALID,1010.27,VALID,0,VALID,101.56,VALID,0,VALID,25.6607,VALID,64,VALID,0,
2010-06-13, 01:12:04,VALID,1010.22,VALID,0,VALID,101.598,VALID,0.105969,VALID,25.6802,VALID,64,VALID,0,
2010-06-13, 01:13:04,VALID,1010.2,VALID,0,VALID,101.697,VALID,0,VALID,25.7211,VALID,64,VALID,0,
2010-06-13, 01:14:04,VALID,1010.2,VALID,0,VALID,101.72,VALID,0,VALID,25.7016,VALID,64,VALID,0,
2010-06-13, 01:15:04,VALID,1010.15,VALID,0,VALID,101.735,VALID,0,VALID,25.7016,VALID,64,VALID,0.0386719,
2010-06-13, 01:16:04,VALID,1010.15,VALID,0,VALID,101.827,VALID,0,VALID,25.7016,VALID,64,VALID,0.215625,
2010-06-13, 01:17:04,VALID,1010.14,VALID,0,VALID,101.827,VALID,0,VALID,25.6607,VALID,64,VALID,0,
2010-06-13, 01:18:04,VALID,1010.14,VALID,0,VALID,101.888,VALID,0,VALID,25.6821,VALID,64,VALID,0,
2010-06-13, 01:19:04,VALID,1010.11,VALID,0,VALID,101.926,VALID,0,VALID,25.6607,VALID,64,VALID,0,
2010-06-13, 01:20:04,VALID,1010.12,VALID,0,VALID,102.01,VALID,0,VALID,25.6802,VALID,64,VALID,0,
2010-06-13, 01:21:04,VALID,1010.11,VALID,0,VALID,102.101,VALID,0,VALID,25.7016,VALID,64,VALID,0,
2010-06-13, 01:22:04,VALID,1010.11,VALID,0,VALID,102.109,VALID,0,VALID,25.6821,VALID,64,VALID,0,
2010-06-13, 01:23:04,VALID,1010.11,VALID,0,VALID,102.094,VALID,0,VALID,25.6626,VALID,64,VALID,0,
2010-06-13, 01:24:04,VALID,1010.09,VALID,0,VALID,102.055,VALID,0,VALID,25.6431,VALID,64,VALID,0,
2010-06-13, 01:25:04,VALID,1010.08,VALID,0,VALID,102.025,VALID,0,VALID,25.6431,VALID,64,VALID,0,
2010-06-13, 01:26:04,VALID,1010.09,VALID,0,VALID,101.933,VALID,0,VALID,25.6236,VALID,64,VALID,0,
2010-06-13, 01:27:04,VALID,1010.01,VALID,0,VALID,101.872,VALID,0,VALID,25.6236,VALID,64,VALID,0,
2010-06-13, 01:28:04,VALID,1010.04,VALID,0.5,VALID,101.819,VALID,0,VALID,25.6041,VALID,64,VALID,0,
2010-06-13, 01:29:04,VALID,1010.02,VALID,0,VALID,101.827,VALID,0.105969,VALID,25.6236,VALID,64,VALID,0,
2010-06-13, 01:30:04,VALID,1009.99,VALID,0,VALID,101.941,VALID,0,VALID,25.6431,VALID,62,VALID,0.390625,
2010-06-13, 01:31:04,VALID,1009.96,VALID,0,VALID,102.033,VALID,0,VALID,25.6431,VALID,341,VALID,0.452734,
2010-06-13, 01:32:04,VALID,1009.94,VALID,0,VALID,102.155,VALID,0,VALID,25.6412,VALID,283,VALID,0.633594,
2010-06-13, 01:33:04,VALID,1009.96,VALID,0,VALID,102.231,VALID,0,VALID,25.6217,VALID,283,VALID,0.226563,
2010-06-13, 01:34:04,VALID,1009.93,VALID,0,VALID,102.292,VALID,0,VALID,25.6217,VALID,299,VALID,0.555469,
2010-06-13, 01:35:04,VALID,1009.89,VALID,0,VALID,102.33,VALID,0,VALID,25.6431,VALID,289,VALID,0.708984,
2010-06-13, 01:36:04,VALID,1009.88,VALID,0,VALID,102.322,VALID,0,VALID,25.6022,VALID,284,VALID,0.506641,
2010-06-13, 01:37:04,VALID,1009.85,VALID,0,VALID,102.368,VALID,0,VALID,25.6041,VALID,284,VALID,0.213672,
2010-06-13, 01:38:04,VALID,1009.81,VALID,0.5,VALID,102.338,VALID,0,VALID,25.6041,VALID,284,VALID,0.469141,
2010-06-13, 01:39:04,VALID,1009.84,VALID,0,VALID,102.353,VALID,0,VALID,25.5846,VALID,299,VALID,0.260156,
2010-06-13, 01:40:04,VALID,1009.84,VALID,0,VALID,102.383,VALID,0,VALID,25.5632,VALID,348,VALID,0.530859,
2010-06-13, 01:41:04,VALID,1009.84,VALID,0,VALID,102.421,VALID,0,VALID,25.5437,VALID,6,VALID,0.417969,
2010-06-13, 01:42:04,VALID,1009.9,VALID,0.5,VALID,102.475,VALID,0.105969,VALID,25.5242,VALID,6,VALID,0.260938,
2010-06-13, 01:43:04,VALID,1009.9,VALID,0,VALID,102.498,VALID,0,VALID,25.5066,VALID,6,VALID,0.398047,
2010-06-13, 01:44:04,VALID,1009.89,VALID,0,VALID,102.528,VALID,0,VALID,25.4657,VALID,6,VALID,0.340234,
2010-06-13, 01:45:04,VALID,1009.91,VALID,0,VALID,102.566,VALID,0,VALID,25.4267,VALID,6,VALID,0.112891,
2010-06-13, 01:46:04,VALID,1009.92,VALID,0.5,VALID,102.574,VALID,0,VALID,25.4462,VALID,6,VALID,0,
2010-06-13, 01:47:04,VALID,1009.96,VALID,0,VALID,102.605,VALID,0.105969,VALID,25.4482,VALID,6,VALID,0.192969,
2010-06-13, 01:48:04,VALID,1009.96,VALID,0.5,VALID,102.658,VALID,0,VALID,25.4287,VALID,18,VALID,0.458594,
2010-06-13, 01:49:04,VALID,1009.96,VALID,0,VALID,102.681,VALID,0,VALID,25.3683,VALID,41,VALID,0.377734,
2010-06-13, 01:50:04,VALID,1009.95,VALID,0.5,VALID,102.658,VALID,0,VALID,25.3702,VALID,41,VALID,0.208594,
2010-06-13, 01:51:04,VALID,1009.94,VALID,0,VALID,102.673,VALID,0,VALID,25.3293,VALID,41,VALID,0.344922,
2010-06-13, 01:52:04,VALID,1009.91,VALID,0,VALID,102.704,VALID,0,VALID,25.3702,VALID,41,VALID,0.459766,
2010-06-13, 01:53:04,VALID,1009.9,VALID,0,VALID,102.734,VALID,0,VALID,25.3312,VALID,41,VALID,0.523047,
2010-06-13, 01:54:04,VALID,1009.89,VALID,0.5,VALID,102.742,VALID,0.105969,VALID,25.3098,VALID,41,VALID,0.304688,
2010-06-13, 01:55:04,VALID,1009.89,VALID,0,VALID,102.78,VALID,0,VALID,25.2708,VALID,61,VALID,0.634375,
2010-06-13, 01:56:04,VALID,1009.89,VALID,0,VALID,102.749,VALID,0,VALID,25.2708,VALID,69,VALID,0.525781,
2010-06-13, 01:57:04,VALID,1009.9,VALID,0,VALID,102.749,VALID,0,VALID,25.2922,VALID,69,VALID,0.700781,
2010-06-13, 01:58:04,VALID,1009.94,VALID,0.5,VALID,102.749,VALID,0,VALID,25.2727,VALID,69,VALID,0.485547,
2010-06-13, 01:59:04,VALID,1009.95,VALID,0.5,VALID,102.788,VALID,0,VALID,25.2513,VALID,60,VALID,0.460156,
2010-06-13, 02:00:04,VALID,1010,VALID,0.5,VALID,102.757,VALID,0,VALID,25.2513,VALID,60,VALID,0.2875,
2010-06-13, 02:01:04,VALID,1010.04,VALID,0.5,VALID,102.757,VALID,0,VALID,25.2123,VALID,60,VALID,0.750391,
2010-06-13, 02:02:04,VALID,1010.08,VALID,0.5,VALID,102.757,VALID,0.105969,VALID,25.2123,VALID,56,VALID,0.224609,
2010-06-13, 02:03:04,VALID,1010.13,VALID,0.5,VALID,102.757,VALID,0,VALID,25.1928,VALID,56,VALID,0.409375,
2010-06-13, 02:04:04,VALID,1010.17,VALID,0,VALID,102.734,VALID,0,VALID,25.1928,VALID,91,VALID,0.837891,
2010-06-13, 02:05:04,VALID,1010.17,VALID,0,VALID,102.727,VALID,0,VALID,25.1733,VALID,98,VALID,1.14609,
2010-06-13, 02:06:04,VALID,1010.19,VALID,0,VALID,102.719,VALID,0,VALID,25.1733,VALID,100,VALID,1.19961,
2010-06-13, 02:07:04,VALID,1010.19,VALID,0,VALID,102.681,VALID,0,VALID,25.1947,VALID,88,VALID,0.953516,
2010-06-13, 02:08:04,VALID,1010.19,VALID,0.5,VALID,102.688,VALID,0,VALID,25.1733,VALID,73,VALID,1.08828,
2010-06-13, 02:09:04,VALID,1010.19,VALID,0,VALID,102.666,VALID,0,VALID,25.1752,VALID,86,VALID,0.947266,
2010-06-13, 02:10:04,VALID,1010.17,VALID,0,VALID,102.658,VALID,0,VALID,25.1752,VALID,79,VALID,1.22969,
2010-06-13, 02:11:04,VALID,1010.21,VALID,0,VALID,102.627,VALID,0.105969,VALID,25.1733,VALID,65,VALID,0.666797,
2010-06-13, 02:12:04,VALID,1010.22,VALID,0.5,VALID,102.635,VALID,0,VALID,25.1752,VALID,83,VALID,0.760547,
2010-06-13, 02:13:04,VALID,1010.23,VALID,0,VALID,102.65,VALID,0,VALID,25.1752,VALID,82,VALID,0.406641,
2010-06-13, 02:14:04,VALID,1010.25,VALID,0.5,VALID,102.627,VALID,0,VALID,25.1343,VALID,80,VALID,0.906641,
2010-06-13, 02:15:04,VALID,1010.29,VALID,0.5,VALID,102.605,VALID,0,VALID,25.1343,VALID,78,VALID,1.56133,
2010-06-13, 02:16:04,VALID,1010.33,VALID,1,VALID,102.574,VALID,0,VALID,25.1538,VALID,108,VALID,1.21211,
2010-06-13, 02:17:04,VALID,1010.39,VALID,1,VALID,102.826,VALID,0,VALID,24.9608,VALID,99,VALID,4.23086,
2010-06-13, 02:18:04,VALID,1010.39,VALID,1,VALID,102.902,VALID,0,VALID,24.7854,VALID,95,VALID,3.34648,
2010-06-13, 02:19:04,VALID,1010.37,VALID,1,VALID,102.971,VALID,0,VALID,24.6099,VALID,114,VALID,3.1418,
2010-06-13, 02:20:04,VALID,1010.42,VALID,0.5,VALID,103.039,VALID,0,VALID,24.4132,VALID,109,VALID,3.46289,
2010-06-13, 02:21:04,VALID,1010.42,VALID,0.5,VALID,102.932,VALID,0,VALID,24.3566,VALID,100,VALID,1.86914,
2010-06-13, 02:22:04,VALID,1010.47,VALID,0.5,VALID,102.902,VALID,0,VALID,24.2378,VALID,124,VALID,1.99844,
2010-06-13, 02:23:04,VALID,1010.52,VALID,0.5,VALID,102.856,VALID,0,VALID,24.1793,VALID,106,VALID,1.16875,
2010-06-13, 02:24:04,VALID,1010.56,VALID,1,VALID,102.879,VALID,0,VALID,24.1617,VALID,100,VALID,2.12305,
2010-06-13, 02:25:04,VALID,1010.61,VALID,0.5,VALID,102.826,VALID,0,VALID,24.1422,VALID,143,VALID,1.51094,
2010-06-13, 02:26:04,VALID,1010.69,VALID,0.5,VALID,102.81,VALID,0,VALID,24.1227,VALID,110,VALID,2.51758,
2010-06-13, 02:27:04,VALID,1010.77,VALID,1.5,VALID,102.81,VALID,0,VALID,24.0837,VALID,127,VALID,2.7125,
2010-06-13, 02:28:04,VALID,1010.81,VALID,1,VALID,102.887,VALID,0,VALID,23.9863,VALID,151,VALID,2.83203,
2010-06-13, 02:29:04,VALID,1010.81,VALID,1.5,VALID,102.925,VALID,0,VALID,23.8694,VALID,134,VALID,2.10781,
2010-06-13, 02:30:04,VALID,1010.77,VALID,2,VALID,102.902,VALID,0,VALID,23.8091,VALID,160,VALID,2.13359,
2010-06-13, 02:31:04,VALID,1010.72,VALID,2,VALID,102.894,VALID,0,VALID,23.7525,VALID,141,VALID,2.23789,
2010-06-13, 02:32:04,VALID,1010.58,VALID,1.5,VALID,102.902,VALID,0.105969,VALID,23.6727,VALID,166,VALID,3.43633,
2010-06-13, 02:33:04,VALID,1010.5,VALID,1.5,VALID,102.894,VALID,0,VALID,23.6356,VALID,145,VALID,2.52148,
2010-06-13, 02:34:04,VALID,1010.47,VALID,1.5,VALID,102.887,VALID,0,VALID,23.5771,VALID,142,VALID,3.31914,
2010-06-13, 02:35:04,VALID,1010.42,VALID,1.5,VALID,102.818,VALID,0,VALID,23.5771,VALID,136,VALID,2.79844,
2010-06-13, 02:36:04,VALID,1010.43,VALID,1.5,VALID,102.795,VALID,0,VALID,23.5576,VALID,142,VALID,3.37812,
2010-06-13, 02:37:04,VALID,1010.45,VALID,1,VALID,102.81,VALID,0,VALID,23.5186,VALID,131,VALID,3.66758,
2010-06-13, 02:38:04,VALID,1010.44,VALID,1,VALID,102.78,VALID,0,VALID,23.4797,VALID,133,VALID,2.78125,
2010-06-13, 02:39:04,VALID,1010.43,VALID,0.5,VALID,102.727,VALID,0,VALID,23.4992,VALID,144,VALID,3.05898,
2010-06-13, 02:40:04,VALID,1010.43,VALID,1,VALID,102.704,VALID,0,VALID,23.4992,VALID,130,VALID,3.35273,
2010-06-13, 02:41:04,VALID,1010.46,VALID,0.5,VALID,102.719,VALID,0,VALID,23.5186,VALID,116,VALID,2.64648,
2010-06-13, 02:42:04,VALID,1010.46,VALID,0.5,VALID,102.704,VALID,0,VALID,23.5009,VALID,135,VALID,4.28086,
2010-06-13, 02:43:04,VALID,1010.51,VALID,0.5,VALID,102.666,VALID,0,VALID,23.4797,VALID,119,VALID,4.96289,
2010-06-13, 02:44:04,VALID,1010.49,VALID,0,VALID,102.62,VALID,0,VALID,23.5186,VALID,125,VALID,4.30664,
2010-06-13, 02:45:04,VALID,1010.51,VALID,0.5,VALID,102.627,VALID,0,VALID,23.5186,VALID,134,VALID,4.08828,
2010-06-13, 02:46:04,VALID,1010.54,VALID,1,VALID,102.62,VALID,0,VALID,23.5594,VALID,149,VALID,2.81953,
2010-06-13, 02:47:04,VALID,1010.55,VALID,0.5,VALID,102.559,VALID,0,VALID,23.5576,VALID,143,VALID,3.88984,
2010-06-13, 02:48:04,VALID,1010.5,VALID,0,VALID,102.513,VALID,0,VALID,23.5966,VALID,152,VALID,4.56367,
2010-06-13, 02:49:04,VALID,1010.49,VALID,0.5,VALID,102.513,VALID,0,VALID,23.6143,VALID,139,VALID,4.41445,
2010-06-13, 02:50:04,VALID,1010.52,VALID,0.5,VALID,102.498,VALID,0,VALID,23.655,VALID,158,VALID,2.89727,
2010-06-13, 02:51:04,VALID,1010.46,VALID,1,VALID,102.46,VALID,0,VALID,23.694,VALID,149,VALID,4.80937,
2010-06-13, 02:52:04,VALID,1010.52,VALID,0.5,VALID,102.437,VALID,0,VALID,23.7135,VALID,150,VALID,5.20547,
2010-06-13, 02:53:04,VALID,1010.48,VALID,1,VALID,102.46,VALID,0,VALID,23.6922,VALID,160,VALID,4.31953,
2010-06-13, 02:54:04,VALID,1010.49,VALID,1.5,VALID,102.482,VALID,0.105969,VALID,23.6922,VALID,162,VALID,6.67891,
2010-06-13, 02:55:04,VALID,1010.51,VALID,2,VALID,102.49,VALID,0.105969,VALID,23.6727,VALID,162,VALID,5.9125,
2010-06-13, 02:56:04,VALID,1010.58,VALID,1.5,VALID,102.62,VALID,0,VALID,23.5363,VALID,145,VALID,5.4832,
2010-06-13, 02:57:04,VALID,1010.61,VALID,2,VALID,102.513,VALID,0,VALID,23.6161,VALID,161,VALID,5.33594,
2010-06-13, 02:58:04,VALID,1010.66,VALID,2.5,VALID,102.475,VALID,0.105969,VALID,23.5966,VALID,173,VALID,4.8875,
2010-06-13, 02:59:04,VALID,1010.58,VALID,2,VALID,102.475,VALID,0,VALID,23.5948,VALID,190,VALID,3.37773,
2010-06-13, 03:00:04,VALID,1010.5,VALID,1.5,VALID,102.399,VALID,0.105969,VALID,23.6532,VALID,196,VALID,3.85391,
2010-06-13, 03:01:05,VALID,1010.48,VALID,1,VALID,102.36,VALID,0.105969,VALID,23.7135,VALID,187,VALID,2.69883,
2010-06-13, 03:02:05,VALID,1010.51,VALID,1,VALID,102.368,VALID,0,VALID,23.733,VALID,177,VALID,2.11445,
2010-06-13, 03:03:05,VALID,1010.45,VALID,1,VALID,102.36,VALID,0,VALID,23.733,VALID,181,VALID,3.01953,
2010-06-13, 03:04:05,VALID,1010.48,VALID,0.5,VALID,102.36,VALID,0,VALID,23.733,VALID,185,VALID,2.33906,
2010-06-13, 03:05:05,VALID,1010.45,VALID,0,VALID,102.345,VALID,0,VALID,23.733,VALID,188,VALID,2.56797,
2010-06-13, 03:06:05,VALID,1010.4,VALID,0.5,VALID,102.338,VALID,0,VALID,23.7312,VALID,181,VALID,1.22148,
2010-06-13, 03:07:05,VALID,1010.37,VALID,0,VALID,102.345,VALID,0.105969,VALID,23.772,VALID,203,VALID,1.00273,
2010-06-13, 03:08:05,VALID,1010.39,VALID,0,VALID,102.315,VALID,0.105969,VALID,23.7701,VALID,208,VALID,1.3957,
2010-06-13, 03:09:05,VALID,1010.42,VALID,0.5,VALID,102.338,VALID,0.105969,VALID,23.7701,VALID,192,VALID,0.788281,
2010-06-13, 03:10:05,VALID,1010.44,VALID,0,VALID,102.322,VALID,0,VALID,23.7507,VALID,213,VALID,1.54883,
2010-06-13, 03:11:05,VALID,1010.45,VALID,0,VALID,102.299,VALID,0,VALID,23.7701,VALID,219,VALID,0.975391,
2010-06-13, 03:12:05,VALID,1010.44,VALID,0.5,VALID,102.277,VALID,0.105969,VALID,23.7896,VALID,211,VALID,1.41562,
2010-06-13, 03:13:05,VALID,1010.46,VALID,0,VALID,102.299,VALID,0.105969,VALID,23.7896,VALID,230,VALID,2.17031,
2010-06-13, 03:14:05,VALID,1010.43,VALID,0,VALID,102.269,VALID,0.105969,VALID,23.8091,VALID,204,VALID,0.935547,
2010-06-13, 03:15:05,VALID,1010.43,VALID,0,VALID,102.284,VALID,0.105969,VALID,23.7896,VALID,216,VALID,2.01758,
2010-06-13, 03:16:05,VALID,1010.42,VALID,0,VALID,102.261,VALID,0.105969,VALID,23.7896,VALID,218,VALID,1.64883,
2010-06-13, 03:17:05,VALID,1010.42,VALID,0.5,VALID,102.254,VALID,0.105969,VALID,23.8109,VALID,224,VALID,2.66797,
2010-06-13, 03:18:05,VALID,1010.41,VALID,0,VALID,102.261,VALID,0.105969,VALID,23.7914,VALID,219,VALID,2.00898,
2010-06-13, 03:19:05,VALID,1010.44,VALID,0,VALID,102.269,VALID,0.105969,VALID,23.7701,VALID,229,VALID,1.05469,
2010-06-13, 03:20:05,VALID,1010.44,VALID,0,VALID,102.261,VALID,0.105969,VALID,23.7701,VALID,232,VALID,1.38164,
2010-06-13, 03:21:05,VALID,1010.42,VALID,0,VALID,102.254,VALID,0.105969,VALID,23.7507,VALID,218,VALID,1.35547,
2010-06-13, 03:22:05,VALID,1010.49,VALID,0.5,VALID,102.277,VALID,0.105969,VALID,23.7507,VALID,227,VALID,0.995703,
2010-06-13, 03:23:05,VALID,1010.49,VALID,0,VALID,102.269,VALID,0.105969,VALID,23.7507,VALID,223,VALID,0.994531,
2010-06-13, 03:24:05,VALID,1010.49,VALID,0,VALID,102.238,VALID,0.105969,VALID,23.7701,VALID,216,VALID,0.782812,
2010-06-13, 03:25:05,VALID,1010.51,VALID,0,VALID,102.261,VALID,0.105969,VALID,23.7507,VALID,213,VALID,1.5375,
2010-06-13, 03:26:05,VALID,1010.51,VALID,0,VALID,102.277,VALID,0.105969,VALID,23.6922,VALID,221,VALID,1.54766,
2010-06-13, 03:27:05,VALID,1010.53,VALID,0,VALID,102.284,VALID,0.105969,VALID,23.6532,VALID,211,VALID,1.62188,
2010-06-13, 03:28:05,VALID,1010.5,VALID,0,VALID,102.292,VALID,0.105969,VALID,23.6125,VALID,226,VALID,1.78125,
2010-06-13, 03:29:05,VALID,1010.51,VALID,0,VALID,102.299,VALID,0.105969,VALID,23.6143,VALID,234,VALID,0.707422,
2010-06-13, 03:30:05,VALID,1010.51,VALID,0,VALID,102.261,VALID,0.105969,VALID,23.632,VALID,223,VALID,0.602734,
2010-06-13, 03:31:05,VALID,1010.52,VALID,0.5,VALID,102.246,VALID,0.105969,VALID,23.6143,VALID,225,VALID,1.27969,
2010-06-13, 03:32:05,VALID,1010.52,VALID,0,VALID,102.246,VALID,0.105969,VALID,23.6143,VALID,212,VALID,1.36641,
2010-06-13, 03:33:05,VALID,1010.51,VALID,0,VALID,102.223,VALID,0,VALID,23.6161,VALID,228,VALID,0.987109,
2010-06-13, 03:34:05,VALID,1010.5,VALID,0,VALID,102.193,VALID,0,VALID,23.6356,VALID,253,VALID,0.530078,
2010-06-13, 03:35:05,VALID,1010.51,VALID,0,VALID,102.193,VALID,0,VALID,23.6356,VALID,227,VALID,1.51641,
2010-06-13, 03:36:05,VALID,1010.53,VALID,0.5,VALID,102.193,VALID,0,VALID,23.6356,VALID,287,VALID,0.767187,
2010-06-13, 03:37:05,VALID,1010.53,VALID,0,VALID,102.208,VALID,0,VALID,23.6373,VALID,223,VALID,1.2207,
2010-06-13, 03:38:05,VALID,1010.54,VALID,0,VALID,102.208,VALID,0,VALID,23.6161,VALID,222,VALID,0.948438,
2010-06-13, 03:39:05,VALID,1010.54,VALID,0,VALID,102.177,VALID,0,VALID,23.6356,VALID,224,VALID,0.977734,
2010-06-13, 03:40:05,VALID,1010.57,VALID,0.5,VALID,102.162,VALID,0,VALID,23.6356,VALID,238,VALID,0.632813,
2010-06-13, 03:41:05,VALID,1010.59,VALID,0,VALID,102.17,VALID,0,VALID,23.6568,VALID,231,VALID,0.422656,
2010-06-13, 03:42:05,VALID,1010.6,VALID,0,VALID,102.193,VALID,0,VALID,23.6179,VALID,290,VALID,0.987891,
2010-06-13, 03:43:05,VALID,1010.62,VALID,0,VALID,102.2,VALID,0,VALID,23.5771,VALID,250,VALID,0.721094,
2010-06-13, 03:44:05,VALID,1010.65,VALID,0,VALID,102.185,VALID,0,VALID,23.5984,VALID,294,VALID,0.544531,